COSMOS 1375 DEB

基本信息
目录编号:
17802
目录名称:
COSMOS 1375 DEB
国际标识:
1982-055AU
轨道中心:
EARTH
物体状态:
在轨
发射日期:
1982-06-06 UTC
轨道信息
数据来源: 国际轨道数据
星历时间: 2026-09-13T09:17:39+0800
半长轴: 7350.991km
偏心率: 0.0048978
轨道倾角: 65.832°
近地点辐角: 262.511°
升交点赤经: 267.301°
平近点角: 129.946°
近地点: 936.85km
远地点: 1008.858km
周期: 104.539分钟
每日圈数: 13.774757
详细信息
发射场:
PKMTR
轨道高度:
LEO
数据来源:
AOE Integration Group
参考系:
TEME
时间系统:
UTC
历元类型:
SGP4
2D轨道图
3D轨道图
轨道高度分析图
轨道倾角分析图
轨道综合分析图
查看轨道综合分析图